,,Stat6,,Stat2,,Stat8,,Stat9,,Stat10,,Wind1,,Wind1,
time,status,PA1M_AVG,status,PR1M_SUM,status,RH1M_AVG,status,SR1M_AVG,status,TA1M_AVG,status,W1dAve1m,status,W1sAve1m,
2005-01-24, 00:00:01,VALID,919.753,VALID,0,VALID,93.1336,VALID,-0.0849042,VALID,19.1274,VALID,134,VALID,1.45078,
2005-01-24, 00:01:00,VALID,919.75,VALID,0,VALID,93.2824,VALID,-0.0849042,VALID,19.0949,VALID,137,VALID,1.37795,
2005-01-24, 00:02:00,VALID,919.759,VALID,0,VALID,93.407,VALID,-0.0509425,VALID,19.0789,VALID,124,VALID,1.51886,
2005-01-24, 00:03:00,VALID,919.741,VALID,0,VALID,93.7948,VALID,-0.101885,VALID,19.0437,VALID,143,VALID,1.71819,
2005-01-24, 00:04:00,VALID,919.742,VALID,0,VALID,94.0021,VALID,-0.0849042,VALID,18.9885,VALID,143,VALID,1.40365,
2005-01-24, 00:05:01,VALID,919.723,VALID,0,VALID,94.1623,VALID,-0.0509425,VALID,18.9662,VALID,138,VALID,1.11682,
2005-01-24, 00:06:01,VALID,919.733,VALID,0,VALID,94.189,VALID,-0.0849042,VALID,18.9177,VALID,133,VALID,0.745908,
2005-01-24, 00:07:00,VALID,919.731,VALID,0,VALID,94.3403,VALID,-0.101885,VALID,18.8921,VALID,123,VALID,1.49524,
2005-01-24, 00:08:00,VALID,919.717,VALID,0,VALID,94.3632,VALID,-0.0679233,VALID,18.8854,VALID,130,VALID,1.44922,
2005-01-24, 00:09:01,VALID,919.726,VALID,0,VALID,94.1483,VALID,-0.0849042,VALID,18.8981,VALID,129,VALID,1.30134,
2005-01-24, 00:10:00,VALID,919.72,VALID,0,VALID,93.7694,VALID,-0.101885,VALID,18.957,VALID,131,VALID,1.97675,
2005-01-24, 00:11:01,VALID,919.728,VALID,0,VALID,92.9034,VALID,-0.0849042,VALID,19.0829,VALID,136,VALID,1.9802,
2005-01-24, 00:12:00,VALID,919.729,VALID,0,VALID,92.0413,VALID,-0.101885,VALID,19.2446,VALID,133,VALID,2.38832,
2005-01-24, 00:13:00,VALID,919.711,VALID,0,VALID,91.2325,VALID,-0.101885,VALID,19.3932,VALID,138,VALID,2.02743,
2005-01-24, 00:14:01,VALID,919.713,VALID,0,VALID,90.6896,VALID,-0.101885,VALID,19.5094,VALID,117,VALID,1.37101,
2005-01-24, 00:15:00,VALID,919.716,VALID,0,VALID,90.434,VALID,-0.0849042,VALID,19.5638,VALID,125,VALID,1.41016,
2005-01-24, 00:16:01,VALID,919.699,VALID,0,VALID,90.4111,VALID,-0.101885,VALID,19.5671,VALID,117,VALID,1.15123,
2005-01-24, 00:17:00,VALID,919.698,VALID,0,VALID,90.4721,VALID,-0.101885,VALID,19.5641,VALID,121,VALID,1.59115,
2005-01-24, 00:18:00,VALID,919.675,VALID,0,VALID,90.256,VALID,-0.118866,VALID,19.5869,VALID,115,VALID,1.68155,
2005-01-24, 00:19:01,VALID,919.688,VALID,0,VALID,90.0067,VALID,-0.118866,VALID,19.6254,VALID,104,VALID,1.14244,
2005-01-24, 00:20:01,VALID,919.699,VALID,0,VALID,90.0487,VALID,0,VALID,19.6339,VALID,94,VALID,1.40792,
2005-01-24, 00:21:00,VALID,919.71,VALID,0,VALID,90.4391,VALID,0,VALID,19.5889,VALID,97,VALID,1.14405,
2005-01-24, 00:22:01,VALID,919.71,VALID,0,VALID,90.9146,VALID,-0.0169808,VALID,19.4953,VALID,111,VALID,1.47204,
2005-01-24, 00:23:01,VALID,919.715,VALID,0,VALID,91.2783,VALID,0,VALID,19.4175,VALID,122,VALID,1.26979,
2005-01-24, 00:24:01,VALID,919.709,VALID,0,VALID,91.5008,VALID,-0.0339617,VALID,19.3686,VALID,113,VALID,2.04901,
2005-01-24, 00:25:01,VALID,919.698,VALID,0,VALID,91.4563,VALID,0.0169808,VALID,19.3751,VALID,108,VALID,1.35547,
2005-01-24, 00:26:01,VALID,919.68,VALID,0,VALID,91.5721,VALID,0,VALID,19.3686,VALID,123,VALID,1.34524,
2005-01-24, 00:27:01,VALID,919.661,VALID,0,VALID,91.6534,VALID,-0.0169808,VALID,19.3554,VALID,118,VALID,1.56953,
2005-01-24, 00:28:01,VALID,919.651,VALID,0,VALID,91.731,VALID,0,VALID,19.3492,VALID,128,VALID,1.57604,
2005-01-24, 00:29:01,VALID,919.617,VALID,0,VALID,91.7857,VALID,0,VALID,19.3234,VALID,91,VALID,1.42401,
2005-01-24, 00:30:00,VALID,919.583,VALID,0,VALID,92.0629,VALID,0.0169808,VALID,19.2913,VALID,117,VALID,1.85486,
2005-01-24, 00:31:01,VALID,919.579,VALID,0,VALID,92.2371,VALID,0,VALID,19.2528,VALID,116,VALID,1.51233,
2005-01-24, 00:32:01,VALID,919.546,VALID,0,VALID,92.2422,VALID,0,VALID,19.236,VALID,124,VALID,1.59575,
2005-01-24, 00:33:01,VALID,919.546,VALID,0,VALID,92.0209,VALID,0.0169808,VALID,19.2851,VALID,129,VALID,1.6755,
2005-01-24, 00:34:01,VALID,919.532,VALID,0,VALID,91.7704,VALID,0.0169808,VALID,19.3132,VALID,123,VALID,1.3006,
2005-01-24, 00:35:00,VALID,919.53,VALID,0,VALID,91.684,VALID,0.0169808,VALID,19.349,VALID,133,VALID,1.77707,
2005-01-24, 00:36:01,VALID,919.545,VALID,0,VALID,91.5759,VALID,0,VALID,19.3785,VALID,136,VALID,1.34793,
2005-01-24, 00:37:01,VALID,919.554,VALID,0,VALID,91.511,VALID,0,VALID,19.3914,VALID,139,VALID,1.66159,
2005-01-24, 00:38:01,VALID,919.554,VALID,0,VALID,91.422,VALID,0,VALID,19.4208,VALID,145,VALID,1.54836,
2005-01-24, 00:39:01,VALID,919.556,VALID,0,VALID,91.4118,VALID,0.0169808,VALID,19.4334,VALID,146,VALID,1.84575,
2005-01-24, 00:40:01,VALID,919.544,VALID,0,VALID,91.3533,VALID,0,VALID,19.4367,VALID,144,VALID,1.62766,
2005-01-24, 00:41:01,VALID,919.54,VALID,0,VALID,91.2949,VALID,0,VALID,19.4364,VALID,146,VALID,1.73906,
2005-01-24, 00:42:01,VALID,919.519,VALID,0,VALID,91.2414,VALID,0.0169808,VALID,19.4362,VALID,142,VALID,1.3234,
2005-01-24, 00:43:00,VALID,919.522,VALID,0,VALID,91.2262,VALID,0,VALID,19.4431,VALID,137,VALID,1.64492,
2005-01-24, 00:44:01,VALID,919.527,VALID,0,VALID,91.2287,VALID,-0.0169808,VALID,19.4565,VALID,113,VALID,1.30822,
2005-01-24, 00:45:01,VALID,919.512,VALID,0,VALID,91.3266,VALID,-0.0169808,VALID,19.4297,VALID,129,VALID,1.27809,
2005-01-24, 00:46:01,VALID,919.494,VALID,0,VALID,91.4614,VALID,0,VALID,19.4108,VALID,144,VALID,1.48086,
2005-01-24, 00:47:01,VALID,919.488,VALID,0,VALID,91.4347,VALID,-0.0169808,VALID,19.3912,VALID,131,VALID,1.06498,
2005-01-24, 00:48:00,VALID,919.49,VALID,0,VALID,91.2414,VALID,0,VALID,19.4233,VALID,123,VALID,1.66369,
2005-01-24, 00:49:01,VALID,919.494,VALID,0,VALID,91.0889,VALID,0,VALID,19.4622,VALID,117,VALID,1.30449,
2005-01-24, 00:50:01,VALID,919.49,VALID,0,VALID,91.1206,VALID,-0.0849042,VALID,19.4637,VALID,115,VALID,1.50229,
2005-01-24, 00:51:01,VALID,919.494,VALID,0,VALID,91.0558,VALID,-0.118866,VALID,19.4704,VALID,119,VALID,1.25231,
2005-01-24, 00:52:01,VALID,919.491,VALID,0,VALID,90.9922,VALID,-0.101885,VALID,19.4868,VALID,98,VALID,1.30822,
2005-01-24, 00:53:01,VALID,919.496,VALID,0,VALID,91.1067,VALID,-0.101885,VALID,19.464,VALID,106,VALID,1.92769,
2005-01-24, 00:54:01,VALID,919.482,VALID,0,VALID,91.4131,VALID,-0.101885,VALID,19.4024,VALID,117,VALID,1.54501,
2005-01-24, 00:55:01,VALID,919.476,VALID,0,VALID,91.4487,VALID,-0.0849042,VALID,19.3894,VALID,139,VALID,1.90716,
2005-01-24, 00:56:01,VALID,919.48,VALID,0,VALID,91.2961,VALID,-0.101885,VALID,19.4188,VALID,130,VALID,1.37043,
2005-01-24, 00:57:01,VALID,919.49,VALID,0,VALID,91.2236,VALID,-0.101885,VALID,19.4324,VALID,109,VALID,1.15737,
2005-01-24, 00:58:01,VALID,919.489,VALID,0,VALID,91.4869,VALID,-0.101885,VALID,19.3932,VALID,125,VALID,1.64787,
2005-01-24, 00:59:01,VALID,919.489,VALID,0,VALID,91.6649,VALID,-0.101885,VALID,19.3773,VALID,132,VALID,1.48547,
2005-01-24, 01:00:01,VALID,919.478,VALID,0,VALID,91.8493,VALID,-0.118866,VALID,19.341,VALID,129,VALID,1.64589,
2005-01-24, 01:01:01,VALID,919.48,VALID,0,VALID,91.9777,VALID,-0.101885,VALID,19.3092,VALID,140,VALID,1.44455,
2005-01-24, 01:02:01,VALID,919.467,VALID,0,VALID,91.9167,VALID,-0.101885,VALID,19.2935,VALID,142,VALID,1.57999,
2005-01-24, 01:03:01,VALID,919.466,VALID,0,VALID,91.8683,VALID,-0.101885,VALID,19.293,VALID,133,VALID,1.74146,
2005-01-24, 01:04:01,VALID,919.448,VALID,0,VALID,91.8137,VALID,-0.101885,VALID,19.3156,VALID,144,VALID,1.46317,
2005-01-24, 01:05:01,VALID,919.454,VALID,0,VALID,91.7043,VALID,0,VALID,19.337,VALID,144,VALID,1.44762,
2005-01-24, 01:06:01,VALID,919.431,VALID,0,VALID,91.642,VALID,0,VALID,19.343,VALID,124,VALID,1.49867,
2005-01-24, 01:07:01,VALID,919.447,VALID,0,VALID,91.4665,VALID,-0.0339617,VALID,19.3723,VALID,122,VALID,1.35226,
2005-01-24, 01:08:01,VALID,919.443,VALID,0,VALID,91.2249,VALID,0.0169808,VALID,19.4108,VALID,136,VALID,1.91369,
2005-01-24, 01:09:01,VALID,919.445,VALID,0,VALID,90.7137,VALID,0,VALID,19.498,VALID,127,VALID,2.11519,
2005-01-24, 01:10:00,VALID,919.428,VALID,0,VALID,90.2216,VALID,0,VALID,19.6115,VALID,129,VALID,2.27274,
2005-01-24, 01:11:00,VALID,919.409,VALID,0,VALID,89.7168,VALID,0,VALID,19.7114,VALID,130,VALID,2.35098,
2005-01-24, 01:12:00,VALID,919.389,VALID,0,VALID,89.3289,VALID,0.0169808,VALID,19.8115,VALID,138,VALID,1.98642,
2005-01-24, 01:13:00,VALID,919.377,VALID,0,VALID,89.1903,VALID,0,VALID,19.8498,VALID,129,VALID,1.63917,
2005-01-24, 01:14:00,VALID,919.378,VALID,0,VALID,88.8826,VALID,0,VALID,19.889,VALID,136,VALID,2.1181,
2005-01-24, 01:15:00,VALID,919.351,VALID,0,VALID,88.4109,VALID,0,VALID,19.9499,VALID,142,VALID,2.00182,
2005-01-24, 01:16:00,VALID,919.376,VALID,0,VALID,87.9569,VALID,0,VALID,20.0339,VALID,119,VALID,1.70089,
2005-01-24, 01:17:00,VALID,919.378,VALID,0,VALID,87.6326,VALID,-0.0169808,VALID,20.1218,VALID,112,VALID,2.16188,
2005-01-24, 01:18:00,VALID,919.381,VALID,0,VALID,87.4571,VALID,0,VALID,20.1633,VALID,133,VALID,1.36882,
2005-01-24, 01:19:00,VALID,919.385,VALID,0,VALID,87.3987,VALID,0,VALID,20.1859,VALID,134,VALID,2.12214,
2005-01-24, 01:20:00,VALID,919.376,VALID,0,VALID,87.4584,VALID,-0.0169808,VALID,20.2058,VALID,130,VALID,1.75312,
2005-01-24, 01:21:00,VALID,919.368,VALID,0,VALID,87.5792,VALID,-0.0339617,VALID,20.1768,VALID,131,VALID,1.94858,
2005-01-24, 01:22:00,VALID,919.357,VALID,0,VALID,87.686,VALID,-0.0169808,VALID,20.1574,VALID,127,VALID,1.54918,
2005-01-24, 01:23:00,VALID,919.338,VALID,0,VALID,87.653,VALID,0,VALID,20.1579,VALID,110,VALID,1.63926,
2005-01-24, 01:24:00,VALID,919.306,VALID,0,VALID,87.7115,VALID,-0.0339617,VALID,20.1576,VALID,115,VALID,1.18342,
2005-01-24, 01:25:00,VALID,919.265,VALID,0,VALID,87.9149,VALID,-0.0169808,VALID,20.1149,VALID,129,VALID,2.46437,
2005-01-24, 01:26:00,VALID,919.232,VALID,0,VALID,88.187,VALID,-0.0339617,VALID,20.0796,VALID,141,VALID,1.77699,
2005-01-24, 01:27:00,VALID,919.198,VALID,0,VALID,88.5673,VALID,0,VALID,20.0148,VALID,122,VALID,0.886446,
2005-01-24, 01:28:00,VALID,919.165,VALID,0,VALID,89.0314,VALID,-0.0169808,VALID,19.9176,VALID,120,VALID,1.29725,
2005-01-24, 01:29:00,VALID,919.139,VALID,0,VALID,89.451,VALID,-0.0169808,VALID,19.8438,VALID,116,VALID,1.71129,
2005-01-24, 01:30:00,VALID,919.111,VALID,0,VALID,89.7295,VALID,0,VALID,19.779,VALID,115,VALID,1.56269,
2005-01-24, 01:31:00,VALID,919.104,VALID,0,VALID,89.8885,VALID,0,VALID,19.7276,VALID,110,VALID,1.27076,
2005-01-24, 01:32:00,VALID,919.098,VALID,0,VALID,90.0677,VALID,-0.0339617,VALID,19.6948,VALID,112,VALID,1.51617,
2005-01-24, 01:33:00,VALID,919.1,VALID,0,VALID,90.1936,VALID,-0.0169808,VALID,19.6697,VALID,64,VALID,1.29397,
2005-01-24, 01:34:00,VALID,919.1,VALID,0,VALID,90.4556,VALID,0,VALID,19.6178,VALID,114,VALID,1.54457,
2005-01-24, 01:35:00,VALID,919.084,VALID,0,VALID,90.64,VALID,0,VALID,19.5917,VALID,87,VALID,1.43676,
2005-01-24, 01:36:00,VALID,919.076,VALID,0,VALID,90.8587,VALID,0,VALID,19.5167,VALID,94,VALID,1.20685,
2005-01-24, 01:37:00,VALID,919.078,VALID,0,VALID,91.2618,VALID,0,VALID,19.4655,VALID,124,VALID,1.52858,
2005-01-24, 01:38:00,VALID,919.077,VALID,0,VALID,91.6318,VALID,-0.0169808,VALID,19.3977,VALID,136,VALID,1.72547,
2005-01-24, 01:39:00,VALID,919.094,VALID,0,VALID,91.9027,VALID,-0.0339617,VALID,19.346,VALID,144,VALID,1.57885,
2005-01-24, 01:40:00,VALID,919.093,VALID,0,VALID,92.1316,VALID,-0.0169808,VALID,19.3077,VALID,145,VALID,2.00888,
2005-01-24, 01:41:00,VALID,919.083,VALID,0,VALID,92.3058,VALID,0,VALID,19.2849,VALID,155,VALID,1.62793,
2005-01-24, 01:42:00,VALID,919.093,VALID,0,VALID,92.4571,VALID,-0.0169808,VALID,19.2466,VALID,156,VALID,1.74702,
2005-01-24, 01:43:00,VALID,919.074,VALID,0,VALID,92.6707,VALID,-0.0169808,VALID,19.1942,VALID,141,VALID,1.90439,
2005-01-24, 01:44:00,VALID,919.086,VALID,0,VALID,92.5792,VALID,0,VALID,19.1972,VALID,128,VALID,1.6686,
2005-01-24, 01:45:00,VALID,919.061,VALID,0,VALID,92.6796,VALID,-0.0169808,VALID,19.2044,VALID,122,VALID,1.46962,
2005-01-24, 01:46:00,VALID,919.084,VALID,0,VALID,92.7165,VALID,0,VALID,19.188,VALID,100,VALID,1.08296,
2005-01-24, 01:47:00,VALID,919.081,VALID,0,VALID,92.9238,VALID,-0.0339617,VALID,19.1366,VALID,124,VALID,1.33496,
2005-01-24, 01:48:00,VALID,919.076,VALID,0,VALID,93.1247,VALID,0,VALID,19.1045,VALID,139,VALID,1.60067,
2005-01-24, 01:49:00,VALID,919.074,VALID,0,VALID,93.1997,VALID,0,VALID,19.0817,VALID,143,VALID,1.07924,
2005-01-24, 01:50:00,VALID,919.093,VALID,0,VALID,93.2264,VALID,-0.0169808,VALID,19.069,VALID,143,VALID,0.993421,
2005-01-24, 01:51:00,VALID,919.09,VALID,0,VALID,93.332,VALID,0,VALID,19.0397,VALID,154,VALID,1.6274,
2005-01-24, 01:52:00,VALID,919.086,VALID,0,VALID,93.4159,VALID,-0.0169808,VALID,19.0397,VALID,156,VALID,1.61882,
2005-01-24, 01:53:00,VALID,919.07,VALID,0,VALID,93.3154,VALID,0,VALID,19.0469,VALID,131,VALID,1.61681,
2005-01-24, 01:54:00,VALID,919.059,VALID,0,VALID,93.5202,VALID,0,VALID,19.0107,VALID,143,VALID,1.78107,
2005-01-24, 01:55:00,VALID,919.065,VALID,0,VALID,93.599,VALID,-0.0339617,VALID,18.9952,VALID,142,VALID,1.74814,
2005-01-24, 01:56:00,VALID,919.055,VALID,0,VALID,93.4057,VALID,0,VALID,19.0273,VALID,144,VALID,1.95469,
2005-01-24, 01:57:00,VALID,919.035,VALID,0,VALID,92.8894,VALID,0,VALID,19.1172,VALID,146,VALID,2.22187,
2005-01-24, 01:58:00,VALID,919.033,VALID,0,VALID,91.8404,VALID,0,VALID,19.3077,VALID,139,VALID,1.75533,
2005-01-24, 01:59:00,VALID,919.029,VALID,0,VALID,91.1295,VALID,-0.0169808,VALID,19.4436,VALID,120,VALID,1.61646,
2005-01-24, 02:00:00,VALID,919.008,VALID,0,VALID,90.537,VALID,-0.0169808,VALID,19.5534,VALID,126,VALID,1.45422,
2005-01-24, 02:01:00,VALID,919.014,VALID,0,VALID,90.3551,VALID,-0.0169808,VALID,19.6371,VALID,118,VALID,1.59659,
2005-01-24, 02:02:00,VALID,918.995,VALID,0,VALID,90.7582,VALID,-0.0169808,VALID,19.5693,VALID,121,VALID,1.57124,
2005-01-24, 02:03:00,VALID,918.971,VALID,0,VALID,91.0672,VALID,0,VALID,19.4891,VALID,109,VALID,1.56736,
2005-01-24, 02:04:00,VALID,918.953,VALID,0,VALID,91.3686,VALID,0,VALID,19.4439,VALID,118,VALID,1.7319,
2005-01-24, 02:05:00,VALID,918.936,VALID,0,VALID,91.5657,VALID,-0.0169808,VALID,19.4049,VALID,129,VALID,1.96035,
2005-01-24, 02:06:00,VALID,918.908,VALID,0,VALID,91.6458,VALID,-0.0169808,VALID,19.3927,VALID,103,VALID,1.9464,
2005-01-24, 02:07:00,VALID,918.904,VALID,0,VALID,91.3813,VALID,0,VALID,19.4078,VALID,114,VALID,1.82685,
2005-01-24, 02:08:00,VALID,918.889,VALID,0,VALID,91.2313,VALID,-0.0339617,VALID,19.4501,VALID,110,VALID,1.66587,
2005-01-24, 02:09:00,VALID,918.871,VALID,0,VALID,91.4716,VALID,0,VALID,19.3982,VALID,112,VALID,1.48613,
2005-01-24, 02:10:00,VALID,918.888,VALID,0,VALID,91.8238,VALID,-0.0169808,VALID,19.3472,VALID,105,VALID,1.4309,
2005-01-24, 02:11:00,VALID,918.879,VALID,0,VALID,92.2664,VALID,0,VALID,19.2461,VALID,101,VALID,1.04759,
2005-01-24, 02:12:00,VALID,918.878,VALID,0,VALID,92.6567,VALID,-0.0169808,VALID,19.1917,VALID,126,VALID,1.39141,
2005-01-24, 02:13:00,VALID,918.854,VALID,0,VALID,92.9454,VALID,-0.0339617,VALID,19.1433,VALID,132,VALID,1.38889,
2005-01-24, 02:14:00,VALID,918.845,VALID,0,VALID,93.1399,VALID,0,VALID,19.1112,VALID,125,VALID,1.38945,
2005-01-24, 02:15:00,VALID,918.829,VALID,0,VALID,93.3485,VALID,0,VALID,19.0655,VALID,136,VALID,1.57773,
2005-01-24, 02:16:00,VALID,918.822,VALID,0,VALID,93.4591,VALID,-0.0169808,VALID,19.0563,VALID,142,VALID,1.72123,
2005-01-24, 02:17:00,VALID,918.818,VALID,0,VALID,93.4731,VALID,-0.0339617,VALID,19.0402,VALID,137,VALID,1.32254,
2005-01-24, 02:18:00,VALID,918.791,VALID,0,VALID,93.5341,VALID,-0.0339617,VALID,19.0467,VALID,150,VALID,1.87919,
2005-01-24, 02:19:00,VALID,918.785,VALID,0,VALID,93.4909,VALID,-0.0169808,VALID,19.0628,VALID,151,VALID,2.06032,
2005-01-24, 02:20:00,VALID,918.785,VALID,0,VALID,93.3879,VALID,0,VALID,19.0685,VALID,142,VALID,1.82227,
2005-01-24, 02:21:00,VALID,918.782,VALID,0,VALID,93.3154,VALID,0,VALID,19.0916,VALID,140,VALID,1.52883,
2005-01-24, 02:22:00,VALID,918.769,VALID,0,VALID,93.3752,VALID,0,VALID,19.0722,VALID,139,VALID,1.726,
2005-01-24, 02:23:00,VALID,918.755,VALID,0,VALID,93.3409,VALID,0.0169808,VALID,19.0884,VALID,128,VALID,1.4641,
2005-01-24, 02:24:00,VALID,918.742,VALID,0,VALID,93.2887,VALID,-0.0169808,VALID,19.0916,VALID,135,VALID,1.55523,
2005-01-24, 02:25:00,VALID,918.72,VALID,0,VALID,93.2493,VALID,0.0169808,VALID,19.1043,VALID,118,VALID,1.20351,
2005-01-24, 02:26:00,VALID,918.689,VALID,0,VALID,93.1183,VALID,0.0169808,VALID,19.1271,VALID,126,VALID,1.46484,
2005-01-24, 02:27:00,VALID,918.667,VALID,0,VALID,92.7788,VALID,0,VALID,19.1853,VALID,117,VALID,1.6128,
2005-01-24, 02:28:00,VALID,918.628,VALID,0,VALID,92.2625,VALID,0,VALID,19.2888,VALID,127,VALID,1.34411,
2005-01-24, 02:29:00,VALID,918.597,VALID,0,VALID,92.026,VALID,0,VALID,19.3308,VALID,143,VALID,1.83232,
2005-01-24, 02:30:00,VALID,918.59,VALID,0,VALID,91.909,VALID,0,VALID,19.3465,VALID,135,VALID,1.54983,
2005-01-24, 02:31:00,VALID,918.597,VALID,0,VALID,91.7857,VALID,0,VALID,19.3728,VALID,128,VALID,1.67461,
2005-01-24, 02:32:00,VALID,918.606,VALID,0,VALID,91.7323,VALID,0,VALID,19.3822,VALID,126,VALID,2.2298,
2005-01-24, 02:33:00,VALID,918.618,VALID,0,VALID,91.6395,VALID,0,VALID,19.4046,VALID,134,VALID,1.84048,
2005-01-24, 02:34:00,VALID,918.626,VALID,0,VALID,91.642,VALID,0.0169808,VALID,19.4175,VALID,129,VALID,2.04379,
2005-01-24, 02:35:00,VALID,918.638,VALID,0,VALID,91.6395,VALID,0,VALID,19.4145,VALID,128,VALID,1.80952,
2005-01-24, 02:36:00,VALID,918.645,VALID,0,VALID,91.7285,VALID,0,VALID,19.3984,VALID,135,VALID,1.95382,
2005-01-24, 02:37:00,VALID,918.63,VALID,0,VALID,91.8238,VALID,0,VALID,19.3852,VALID,129,VALID,1.73142,
2005-01-24, 02:38:00,VALID,918.616,VALID,0,VALID,91.9179,VALID,0,VALID,19.3691,VALID,131,VALID,1.83906,
2005-01-24, 02:39:00,VALID,918.588,VALID,0,VALID,91.8849,VALID,-0.0169808,VALID,19.3693,VALID,127,VALID,2.21771,
2005-01-24, 02:40:00,VALID,918.581,VALID,0,VALID,91.408,VALID,0,VALID,19.4434,VALID,102,VALID,1.28106,
2005-01-24, 02:41:00,VALID,918.576,VALID,0,VALID,91.1779,VALID,0.0169808,VALID,19.4953,VALID,129,VALID,1.55717,
2005-01-24, 02:42:00,VALID,918.561,VALID,0,VALID,90.9324,VALID,-0.0169808,VALID,19.5407,VALID,121,VALID,1.25254,
2005-01-24, 02:43:00,VALID,918.551,VALID,0,VALID,90.7519,VALID,0,VALID,19.5763,VALID,120,VALID,1.98642,
2005-01-24, 02:44:00,VALID,918.551,VALID,0,VALID,90.654,VALID,0,VALID,19.6019,VALID,105,VALID,2.02468,
2005-01-24, 02:45:00,VALID,918.537,VALID,0,VALID,90.5637,VALID,0,VALID,19.6242,VALID,126,VALID,1.43359,
2005-01-24, 02:46:00,VALID,918.531,VALID,0,VALID,90.3895,VALID,0,VALID,19.6565,VALID,122,VALID,1.55926,
2005-01-24, 02:47:00,VALID,918.526,VALID,0,VALID,90.2051,VALID,0.0339617,VALID,19.6888,VALID,106,VALID,1.3145,
2005-01-24, 02:48:00,VALID,918.516,VALID,0,VALID,90.3195,VALID,0.0169808,VALID,19.696,VALID,110,VALID,1.71003,
2005-01-24, 02:49:00,VALID,918.501,VALID,0,VALID,90.3869,VALID,0.0509425,VALID,19.6791,VALID,112,VALID,1.67813,
2005-01-24, 02:50:00,VALID,918.483,VALID,0,VALID,90.5154,VALID,0.0169808,VALID,19.6371,VALID,113,VALID,1.21823,
2005-01-24, 02:51:00,VALID,918.479,VALID,0,VALID,90.8015,VALID,0,VALID,19.5954,VALID,128,VALID,1.24583,
2005-01-24, 02:52:00,VALID,918.445,VALID,0,VALID,91.1308,VALID,0,VALID,19.5308,VALID,128,VALID,1.20924,
2005-01-24, 02:53:00,VALID,918.449,VALID,0,VALID,91.4347,VALID,0,VALID,19.456,VALID,135,VALID,1.75363,
2005-01-24, 02:54:00,VALID,918.461,VALID,0,VALID,91.6484,VALID,0,VALID,19.4111,VALID,139,VALID,1.5718,
2005-01-24, 02:55:00,VALID,918.458,VALID,0,VALID,91.7526,VALID,0,VALID,19.3788,VALID,138,VALID,1.38777,
2005-01-24, 02:56:00,VALID,918.494,VALID,0,VALID,91.7882,VALID,0.0169808,VALID,19.3502,VALID,111,VALID,1.07267,
2005-01-24, 02:57:00,VALID,918.504,VALID,0,VALID,92.143,VALID,0,VALID,19.2943,VALID,117,VALID,0.848837,
2005-01-24, 02:58:00,VALID,918.523,VALID,0,VALID,92.2969,VALID,0.0169808,VALID,19.266,VALID,112,VALID,1.20586,
2005-01-24, 02:59:00,VALID,918.525,VALID,0,VALID,92.5067,VALID,0,VALID,19.2305,VALID,123,VALID,1.45076,
2005-01-24, 03:00:00,VALID,918.532,VALID,0,VALID,92.7407,VALID,0,VALID,19.1823,VALID,141,VALID,1.45517,
2005-01-24, 03:01:00,VALID,918.513,VALID,0,VALID,92.9708,VALID,0.0169808,VALID,19.156,VALID,137,VALID,1.68883,
2005-01-24, 03:02:00,VALID,918.503,VALID,0,VALID,92.9581,VALID,0.0339617,VALID,19.1391,VALID,154,VALID,1.18229,
2005-01-24, 03:03:00,VALID,918.501,VALID,0,VALID,92.9543,VALID,0.0169808,VALID,19.1197,VALID,153,VALID,1.24734,
2005-01-24, 03:04:00,VALID,918.5,VALID,0,VALID,93.0764,VALID,0,VALID,19.1006,VALID,138,VALID,1.39323,
2005-01-24, 03:05:00,VALID,918.487,VALID,0,VALID,93.2862,VALID,0,VALID,19.0752,VALID,134,VALID,1.3391,
2005-01-24, 03:06:00,VALID,918.482,VALID,0,VALID,93.4617,VALID,0.0169808,VALID,19.0531,VALID,128,VALID,0.879724,
2005-01-24, 03:07:00,VALID,918.462,VALID,0,VALID,93.6104,VALID,0,VALID,19.0171,VALID,120,VALID,1.29323,
2005-01-24, 03:08:00,VALID,918.437,VALID,0,VALID,93.777,VALID,0.0169808,VALID,19.0047,VALID,141,VALID,1.02754,
2005-01-24, 03:09:00,VALID,918.426,VALID,0,VALID,93.88,VALID,-0.0169808,VALID,18.9754,VALID,141,VALID,0.843564,
2005-01-24, 03:10:00,VALID,918.428,VALID,0,VALID,94.0771,VALID,-0.0169808,VALID,18.921,VALID,137,VALID,1.16007,
2005-01-24, 03:11:00,VALID,918.413,VALID,0,VALID,94.2704,VALID,-0.0169808,VALID,18.8919,VALID,145,VALID,1.20948,
2005-01-24, 03:12:00,VALID,918.392,VALID,0,VALID,94.4828,VALID,0,VALID,18.8721,VALID,144,VALID,1.56764,
2005-01-24, 03:13:00,VALID,918.365,VALID,0,VALID,94.4624,VALID,0.0339617,VALID,18.8564,VALID,151,VALID,1.09323,
2005-01-24, 03:14:00,VALID,918.343,VALID,0,VALID,94.6099,VALID,0,VALID,18.8335,VALID,142,VALID,1.3343,
2005-01-24, 03:15:00,VALID,918.318,VALID,0,VALID,94.7663,VALID,-0.0169808,VALID,18.8142,VALID,141,VALID,1.30526,
2005-01-24, 03:16:00,VALID,918.284,VALID,0,VALID,94.8846,VALID,0.0169808,VALID,18.7787,VALID,129,VALID,1.36547,
2005-01-24, 03:17:00,VALID,918.25,VALID,0,VALID,95.0957,VALID,0,VALID,18.7558,VALID,127,VALID,1.45889,
2005-01-24, 03:18:00,VALID,918.239,VALID,0,VALID,95.1809,VALID,0,VALID,18.7558,VALID,131,VALID,1.5322,
2005-01-24, 03:19:00,VALID,918.231,VALID,0,VALID,95.2025,VALID,0,VALID,18.7355,VALID,113,VALID,1.28032,
2005-01-24, 03:20:00,VALID,918.239,VALID,0,VALID,95.364,VALID,-0.0509425,VALID,18.7473,VALID,133,VALID,2.13774,
2005-01-24, 03:21:00,VALID,918.254,VALID,0,VALID,95.3004,VALID,-0.0679233,VALID,18.7475,VALID,117,VALID,1.45585,
2005-01-24, 03:22:00,VALID,918.274,VALID,0,VALID,95.3831,VALID,-0.101885,VALID,18.7413,VALID,137,VALID,1.8452,
2005-01-24, 03:23:00,VALID,918.28,VALID,0,VALID,95.3564,VALID,-0.0679233,VALID,18.7409,VALID,138,VALID,1.5684,
2005-01-24, 03:24:00,VALID,918.286,VALID,0,VALID,95.2686,VALID,-0.101885,VALID,18.7471,VALID,135,VALID,1.95058,
2005-01-24, 03:25:00,VALID,918.281,VALID,0,VALID,95.2839,VALID,-0.0849042,VALID,18.7508,VALID,140,VALID,1.82965,
2005-01-24, 03:26:00,VALID,918.28,VALID,0,VALID,95.3945,VALID,-0.0849042,VALID,18.7446,VALID,144,VALID,1.74805,
2005-01-24, 03:27:00,VALID,918.266,VALID,0,VALID,95.3589,VALID,-0.101885,VALID,18.7252,VALID,149,VALID,1.52521,
2005-01-24, 03:28:00,VALID,918.259,VALID,0,VALID,95.5,VALID,-0.101885,VALID,18.6954,VALID,129,VALID,1.83691,
2005-01-24, 03:29:00,VALID,918.244,VALID,0,VALID,95.6692,VALID,-0.0849042,VALID,18.673,VALID,130,VALID,1.68281,
2005-01-24, 03:30:00,VALID,918.232,VALID,0,VALID,95.8065,VALID,-0.0679233,VALID,18.6636,VALID,133,VALID,1.55938,
2005-01-24, 03:31:00,VALID,918.217,VALID,0,VALID,95.809,VALID,-0.101885,VALID,18.6671,VALID,139,VALID,1.77527,
2005-01-24, 03:32:00,VALID,918.209,VALID,0,VALID,95.7747,VALID,-0.0849042,VALID,18.6606,VALID,133,VALID,1.59966,
2005-01-24, 03:33:00,VALID,918.207,VALID,0,VALID,95.7111,VALID,-0.118866,VALID,18.6576,VALID,124,VALID,1.40327,
2005-01-24, 03:34:00,VALID,918.194,VALID,0,VALID,95.8421,VALID,-0.101885,VALID,18.635,VALID,130,VALID,1.72656,
2005-01-24, 03:35:00,VALID,918.197,VALID,0,VALID,95.8205,VALID,0,VALID,18.6465,VALID,128,VALID,1.75133,
2005-01-24, 03:36:00,VALID,918.17,VALID,0,VALID,95.6755,VALID,0,VALID,18.6793,VALID,127,VALID,1.60816,